[[{"header":{"parameterUnit":"m.s-1","parameterCategory":1,"la1":30.2991,"la2":30.254,"lo1":-89.0895,"lo2":-89.0444,"dy":0.0017,"dx":0.0017,"nx":28,"ny":28,"refTime":"2025-06-19T21:00:00:Z","depth":0,"parameterNumber":2,"parameterNumberName":"U-component_of_WINDS"},"data":[0,0,0,0,0,0,0,0,0,0,0,0,0,0,0,0,0,0,0,0,0,0,0,0,0,0,0,0,0,0,0,0,0,0,0,0,0,0,0,0,0,0,0,0,0,0,0,0,0,0,0,0,0,0,0,0,0,0,2.4367,2.4368,0,2.4456,2.4457,2.4458,2.4472,2.4471,2.447,2.4469,2.4565,2.4569,2.4572,0,0,0,0,0,0,0,0,0,0,0,0,0,2.4216,2.4218,2.4367,2.4368,2.4369,2.4456,2.4457,2.4458,2.4472,2.4471,2.447,2.4469,2.4564,2.4568,2.4572,0,0,0,0,0,0,0,0,0,0,0,0,0,2.4291,2.4219,2.4367,2.4386,2.4389,2.4455,2.4457,2.4458,2.4472,2.4471,2.4469,2.4468,2.4563,2.4568,2.4573,2.4628,0,0,2.4588,2.459,0,0,0,0,0,0,0,0,2.4287,2.4296,2.4382,2.4385,2.4388,2.4451,2.4439,2.4515,2.4472,2.4441,2.4469,2.4468,2.4529,2.4537,2.4556,2.4632,2.4636,2.4588,2.4591,2.4594,2.4595,0,0,0,0,0,0,0,2.4281,2.4293,2.4402,2.4384,2.4387,2.4393,2.4402,2.4453,2.4491,2.4443,2.4444,2.4454,2.453,2.4551,2.4558,2.4638,2.4588,2.4593,2.4596,2.4598,2.4766,2.4767,0,0,0,0,0,0,2.4272,2.4288,2.44,2.4405,2.4333,2.4396,2.4407,2.4432,2.449,2.4498,2.4455,2.4455,2.4543,2.4553,2.4562,2.4631,2.4594,2.4598,2.4601,2.4764,2.4766,2.4768,0,0,0,0,0,0,2.4268,2.4282,2.4396,2.4347,2.4362,2.44,2.4429,2.4435,2.4456,2.4499,2.4506,2.447,2.4543,2.4555,2.4611,2.4634,2.46,2.4605,2.4762,2.4765,2.4767,2.4769,0,0,0,0,0,0,2.4264,2.428,2.43,2.4347,2.4364,2.4442,2.443,2.4437,2.4464,2.4464,2.4514,2.4522,2.4543,2.4604,2.4616,2.4641,2.4609,2.4761,2.4763,2.4766,2.4767,2.4771,2.4774,0,0,0,0,0,2.4259,2.4298,2.4301,2.4314,2.439,2.4443,2.4453,2.4475,2.4465,2.4487,2.4515,2.452,2.463,2.4609,2.4624,2.465,2.4759,2.4763,2.4766,2.4765,2.477,2.4774,0,0,0,0,0,0,2.4254,2.4304,2.4308,2.4364,2.4399,2.4445,2.4473,2.4479,2.452,2.4518,2.4545,2.4557,2.4612,2.4637,2.4613,2.4707,2.4694,2.47,2.4689,2.4694,2.4697,2.4691,2.4613,0,0,0,0,0,2.4259,2.4296,2.4339,2.4384,2.4402,2.4434,2.4458,2.4472,2.451,2.4526,2.4558,2.4597,2.464,2.4668,2.4711,2.4771,2.4783,2.4796,2.48,2.4802,2.4808,2.4843,2.485,2.4778,2.4778,2.4778,0,0,2.427,2.4303,2.4325,2.4384,2.4413,2.4453,2.4447,2.4489,2.452,2.4533,2.4588,2.4613,2.4658,2.4717,2.4745,2.4739,2.483,2.4807,2.4808,2.4813,2.4847,2.4854,2.486,2.4781,2.478,2.478,0,0,2.4312,2.4339,2.438,2.4409,2.4453,2.4474,2.4484,2.453,2.4547,2.4602,2.4613,2.4651,2.4725,2.4757,2.4783,2.4838,2.4845,2.4851,2.4871,2.4905,2.491,2.4916,2.4936,2.4944,2.4856,2.4856,2.4856,0,2.4321,2.438,2.4401,2.4443,2.447,2.4482,2.4525,2.4553,2.4609,2.4628,2.462,2.4714,2.4745,2.4812,2.4826,2.4846,2.486,2.4846,2.4908,2.4913,2.4918,2.4938,2.4946,2.4857,2.4857,2.4857,2.4857,0,2.439,2.4432,2.446,2.4512,2.4542,2.4584,2.4613,2.4641,2.4653,2.4676,2.4733,2.4771,2.4822,2.4839,2.4851,2.4908,2.4904,2.4902,2.4889,2.4925,2.4945,2.4953,2.4858,2.4857,2.4857,2.4857,0,0,2.4431,2.4494,2.4504,2.4529,2.4578,2.4611,2.4655,2.4703,2.4728,2.4766,2.4805,2.4868,2.4866,2.4896,2.4912,2.4942,2.4985,2.4937,2.4938,2.4945,2.5052,2.5053,2.5062,2.4989,2.4991,2.4992,2.5049,0,2.4479,2.4556,2.4576,2.4642,2.4682,2.4694,2.4733,2.4769,2.4792,2.483,2.4857,2.4901,2.4895,2.4913,2.4943,2.4973,2.5007,2.4969,2.5028,2.503,2.5016,2.5072,2.5074,2.5125,2.5056,2.5058,2.5059,0,2.4545,2.4584,2.4653,2.4698,2.4716,2.475,2.4796,2.4832,2.4874,2.4889,2.4922,2.4935,2.4984,2.4969,2.5037,2.5011,2.5037,2.5055,2.5058,2.5065,2.5046,2.5081,2.5142,2.515,2.5071,2.507,2.5069,0,2.4569,2.4638,2.4689,2.471,2.4764,2.4788,2.4812,2.4852,2.488,2.4921,2.494,2.4987,2.5013,2.505,2.5077,2.5063,2.5144,2.513,2.5159,2.5159,2.5176,2.5175,2.5242,2.5191,2.5191,2.5191,2.5191,0,2.4621,2.4663,2.4701,2.4732,2.4781,2.4805,2.4853,2.4878,2.4914,2.4952,2.4966,2.5002,2.5035,2.5076,2.5097,2.5152,2.5163,2.5178,2.5184,2.5177,2.5175,2.5195,2.5192,2.5193,2.5193,2.5192,2.5192,0,2.4656,2.4682,2.4739,2.4785,2.4798,2.4832,2.4873,2.4905,2.4928,2.4977,2.4989,2.5027,2.5076,2.5106,2.5169,2.5183,2.5244,2.5247,2.5229,2.5232,2.5259,2.5257,2.5342,2.5355,2.5295,2.5295,2.5295,0,2.4687,2.472,2.477,2.4795,2.4819,2.4861,2.4889,2.4915,2.4945,2.4995,2.5022,2.5071,2.5112,2.519,2.5225,2.5273,2.5278,2.5305,2.5286,2.5279,2.528,2.5278,2.5282,2.5308,2.5309,2.5309,2.531,0,2.4741,2.4753,2.4792,2.4837,2.487,2.4907,2.4943,2.4964,2.4997,2.503,2.5079,2.5111,2.5174,2.5224,2.5275,2.5303,2.5313,2.5315,2.5325,2.5319,2.5307,2.5315,2.5239,2.5313,2.5313,2.5313,2.5313,2.5312,2.4776,2.4806,2.4846,2.489,2.492,2.4954,2.4987,2.5014,2.5056,2.5108,2.5122,2.5174,2.5217,2.5286,2.5315,2.5357,2.5354,2.5367,2.5371,2.5374,2.5375,2.53,2.5367,2.5367,2.5367,2.5367,2.5367,0,2.4831,2.4857,2.4897,2.4948,2.4983,2.4988,2.5029,2.5059,2.5104,2.5142,2.5182,2.524,2.5288,2.5326,2.5377,2.5404,2.541,2.5416,2.5415,2.5421,2.5375,2.5362,2.5411,2.5411,2.5411,2.5411,2.5411,2.5411,2.4863,2.4915,2.4932,2.4999,2.5026,2.5076,2.5099,2.5132,2.5163,2.5226,2.5266,2.529,2.5329,2.5382,2.5428,2.5438,2.5457,2.5462,2.5474,2.5429,2.5425,2.542,2.5408,2.5466,2.5466,2.5517,2.5517,2.5518]},{"header":{"parameterUnit":"m.s-1","parameterCategory":1,"la1":30.2991,"la2":30.254,"lo1":-89.0895,"lo2":-89.0444,"dy":0.0017,"dx":0.0017,"nx":28,"ny":28,"refTime":"2025-06-19T21:00:00:Z","depth":0,"parameterNumber":3,"parameterNumberName":"V-component_of_WINDS"},"data":[0,0,0,0,0,0,0,0,0,0,0,0,0,0,0,0,0,0,0,0,0,0,0,0,0,0,0,0,0,0,0,0,0,0,0,0,0,0,0,0,0,0,0,0,0,0,0,0,0,0,0,0,0,0,0,0,0,0,1.93,1.93,0,1.9348,1.9349,1.935,1.9356,1.9356,1.9355,1.9355,1.9401,1.9403,1.9405,0,0,0,0,0,0,0,0,0,0,0,0,0,1.9207,1.9208,1.93,1.93,1.9301,1.9348,1.9349,1.935,1.9356,1.9356,1.9355,1.9355,1.9401,1.9403,1.9405,0,0,0,0,0,0,0,0,0,0,0,0,0,1.925,1.9209,1.9299,1.931,1.9311,1.9348,1.9349,1.935,1.9356,1.9356,1.9355,1.9355,1.94,1.9403,1.9405,1.9434,0,0,1.9413,1.9414,0,0,0,0,0,0,0,0,1.9248,1.9254,1.9308,1.9309,1.9311,1.9346,1.9333,1.9378,1.9357,1.9339,1.9355,1.9354,1.9383,1.9387,1.9397,1.9436,1.9438,1.9413,1.9414,1.9415,1.9416,0,0,0,0,0,0,0,1.9245,1.9252,1.9319,1.9309,1.9311,1.931,1.9316,1.9342,1.9364,1.9341,1.9341,1.9347,1.9384,1.9395,1.9399,1.9439,1.9413,1.9415,1.9416,1.9417,1.9499,1.95,0,0,0,0,0,0,1.924,1.9249,1.9317,1.932,1.9277,1.9313,1.9319,1.9335,1.9364,1.9368,1.9348,1.9347,1.9391,1.9396,1.94,1.9433,1.9415,1.9418,1.9419,1.9498,1.9499,1.95,0,0,0,0,0,0,1.9238,1.9247,1.9315,1.9285,1.9294,1.9315,1.9333,1.9336,1.9348,1.9369,1.9373,1.9355,1.9391,1.9397,1.9425,1.9435,1.9419,1.9421,1.9497,1.9498,1.9499,1.9501,0,0,0,0,0,0,1.9236,1.9246,1.9258,1.9285,1.9295,1.9341,1.9334,1.9338,1.9352,1.9352,1.9378,1.9381,1.9391,1.9421,1.9427,1.9438,1.9423,1.9497,1.9498,1.9499,1.95,1.9502,1.9504,0,0,0,0,0,1.9232,1.9257,1.9259,1.9267,1.9312,1.9341,1.9347,1.9359,1.9353,1.9365,1.9378,1.938,1.9433,1.9424,1.9431,1.9443,1.9496,1.9498,1.9499,1.95,1.9502,1.9504,0,0,0,0,0,0,1.923,1.9261,1.9263,1.9298,1.9317,1.9343,1.9358,1.9361,1.9382,1.9381,1.9393,1.9399,1.9425,1.9437,1.9426,1.947,1.9464,1.9467,1.9462,1.9464,1.9466,1.9462,1.9425,0,0,0,0,0,1.9234,1.9257,1.9282,1.931,1.9319,1.9337,1.935,1.9357,1.9377,1.9385,1.9401,1.9419,1.9439,1.9452,1.9473,1.9502,1.9506,1.9513,1.9515,1.9516,1.9519,1.9532,1.9535,1.9505,1.9505,1.9505,0,0,1.9242,1.9261,1.9275,1.931,1.9325,1.9347,1.9344,1.9367,1.9382,1.9388,1.9416,1.9427,1.9448,1.9476,1.9489,1.9486,1.9528,1.9518,1.9519,1.9521,1.9534,1.9537,1.9539,1.9506,1.9506,1.9505,0,0,1.9266,1.9284,1.9308,1.9324,1.9347,1.9359,1.9364,1.9389,1.9397,1.9424,1.9428,1.9446,1.9482,1.9495,1.9507,1.9533,1.9535,1.954,1.9548,1.9561,1.9564,1.9566,1.9573,1.9576,1.9542,1.9542,1.9542,0,1.9272,1.9307,1.932,1.9342,1.9356,1.9363,1.9385,1.9399,1.9428,1.9436,1.9433,1.9476,1.9491,1.9521,1.9527,1.9537,1.9542,1.9537,1.9563,1.9565,1.9567,1.9574,1.9577,1.9542,1.9542,1.9542,1.9542,0,1.9311,1.9335,1.9351,1.9378,1.9394,1.9417,1.9431,1.9445,1.945,1.946,1.9487,1.9504,1.9527,1.9534,1.954,1.9564,1.9562,1.956,1.9554,1.957,1.9577,1.958,1.9542,1.9542,1.9542,1.9542,0,0,1.9337,1.937,1.9376,1.9387,1.9413,1.943,1.9451,1.9474,1.9485,1.9504,1.952,1.9549,1.9547,1.956,1.9567,1.9579,1.9595,1.9576,1.9576,1.9577,1.9621,1.962,1.9624,1.9597,1.9597,1.9598,1.9618,0,1.9363,1.9403,1.9414,1.9447,1.9467,1.9472,1.949,1.9506,1.9516,1.9533,1.9544,1.9563,1.9561,1.9568,1.958,1.9591,1.9604,1.959,1.961,1.9611,1.9604,1.9628,1.9628,1.9647,1.9621,1.9622,1.9622,0,1.9399,1.9419,1.9453,1.9474,1.9483,1.9499,1.9519,1.9536,1.9554,1.956,1.9573,1.9578,1.9598,1.9591,1.9618,1.9607,1.9616,1.9623,1.9624,1.9625,1.9617,1.9628,1.9653,1.9655,1.9627,1.9626,1.9626,0,1.9411,1.9446,1.9471,1.9481,1.9506,1.9517,1.9528,1.9545,1.9557,1.9574,1.9581,1.96,1.961,1.9624,1.9633,1.9627,1.9657,1.9652,1.9661,1.9661,1.9667,1.9666,1.9692,1.9675,1.9675,1.9675,1.9675,0,1.9438,1.9459,1.9477,1.9492,1.9514,1.9525,1.9546,1.9557,1.9572,1.9587,1.9593,1.9607,1.9619,1.9634,1.9641,1.966,1.9665,1.9669,1.967,1.9668,1.9667,1.9673,1.9672,1.9675,1.9675,1.9675,1.9675,0,1.9456,1.9469,1.9496,1.9517,1.9523,1.9538,1.9555,1.9569,1.9578,1.9598,1.9603,1.9617,1.9635,1.9646,1.9668,1.9673,1.9693,1.9695,1.9688,1.9688,1.9697,1.9695,1.9727,1.973,1.9711,1.9712,1.9712,0,1.9471,1.9487,1.951,1.9521,1.9532,1.955,1.9562,1.9573,1.9585,1.9605,1.9615,1.9634,1.9649,1.9677,1.9688,1.9705,1.9706,1.9716,1.9708,1.9705,1.9704,1.9702,1.9703,1.9717,1.9717,1.9717,1.9717,0,1.9497,1.9502,1.952,1.954,1.9554,1.957,1.9585,1.9593,1.9606,1.9619,1.9638,1.965,1.9672,1.9689,1.9706,1.9715,1.9718,1.9719,1.9722,1.9719,1.9714,1.9715,1.969,1.9718,1.9718,1.9718,1.9718,1.9718,1.9513,1.9526,1.9544,1.9563,1.9575,1.9589,1.9602,1.9613,1.9629,1.9649,1.9654,1.9673,1.9687,1.9711,1.972,1.9734,1.9732,1.9736,1.9737,1.9738,1.9737,1.9712,1.9737,1.9737,1.9737,1.9737,1.9737,0,1.9537,1.9548,1.9566,1.9587,1.9601,1.9603,1.9619,1.9631,1.9648,1.9662,1.9676,1.9696,1.9712,1.9725,1.9741,1.9749,1.975,1.9753,1.9752,1.9753,1.9739,1.9734,1.9751,1.9751,1.9751,1.9751,1.9751,1.9751,1.9551,1.9573,1.958,1.9608,1.9618,1.9638,1.9646,1.9658,1.9669,1.9692,1.9706,1.9714,1.9726,1.9743,1.9757,1.976,1.9765,1.9767,1.977,1.9756,1.9755,1.9753,1.9749,1.9769,1.9769,1.9783,1.9783,1.9784]}]]